Ahmedabad, India

8:16 PM IST on February 25, 2018 (GMT +0530)
Ahmedabad

Weather History for VAAH - October, 2012

Change the Weather History Date:

Friday, October 5, 2012

  Actual Average Record
Temperature  
Mean Temperature 86 °F -  
Max Temperature 98 °F 91 °F 102 °F (2017)
Min Temperature 75 °F 68 °F 68 °F (2007)
Cooling Degree Days 22    
Growing Degree Days 36 (Base 50)    
Moisture  
Dew Point 77 °F    
Average Humidity 68    
Maximum Humidity 89    
Minimum Humidity 45    
Precipitation  
Precipitation 0.00 in 0.03 in - ()
Sea Level Pressure  
Sea Level Pressure 29.76 in    
Wind  
Wind Speed 3 mph ()    
Max Wind Speed 7 mph    
Max Gust Speed -    
Visibility 2.8 miles    
Events      
Averages and records for this station are not official NWS values.
T = Trace of Precipitation, MM = Missing Value Source: Averaged Metar Reports

Daily Weather History Graph

Daily Weather History Graph

Search for Another Location

Airport or City:

Trip Planner

Search our weather history database for the weather conditions in past years. The results will help you decide how hot, cold, wet, or windy it might be!

Date:

Astronomy

Oct. 05, 2012 Rise Set
Actual Time 6:32 AM IST 6:22 PM IST
Civil Twilight 6:09 AM IST 6:45 PM IST
Nautical Twilight 5:43 AM IST 7:11 PM IST
Astronomical Twilight 5:17 AM IST 7:37 PM IST
Moon 9:55 PM IST (10/5) 10:47 AM IST (10/5)
Length of Visible Light 12h 35m
Length of Day
11h 50m
Waning Gibbous, 77% of the Moon is Illuminated
Oct 5
Waning Gibbous
Oct 8
Last Quarter
Oct 15
New
Oct 22
First Quarter
Oct 30
Full

Hourly Weather History & Observations

Time (IST) Temp. Heat Index Dew Point Humidity Pressure Visibility Wind Dir Wind Speed Gust Speed Precip Events Conditions
12:10 AM 86.0 °F 99.3 °F 78.8 °F 79% 29.74 in 2.5 mi SW 5.8 mph - N/A   Haze
12:40 AM 84.2 °F 98.3 °F 80.6 °F 89% 29.74 in 2.5 mi SW 4.6 mph - N/A   Haze
1:10 AM 84.2 °F 98.3 °F 80.6 °F 89% 29.74 in 2.5 mi SW 4.6 mph - N/A   Haze
1:40 AM - - - N/A% - - North - - N/A   Unknown
2:10 AM - - - N/A% - - North - - N/A   Unknown
2:30 AM 82 °F - 78 °F 83% 29.75 in 1 mi SSW 3.5 mph - -   Haze
2:40 AM - - - N/A% - - North - - N/A   Unknown
3:10 AM - - - N/A% - - North - - N/A   Unknown
3:40 AM 82.4 °F 92.4 °F 78.8 °F 89% 29.71 in 2.5 mi Calm Calm - N/A   Haze
4:10 AM 82.4 °F 92.4 °F 78.8 °F 89% 29.74 in 2.5 mi Calm Calm - N/A   Haze
4:40 AM 82.4 °F 92.4 °F 78.8 °F 89% 29.74 in 2.5 mi Calm Calm - N/A   Haze
5:10 AM 82.4 °F 87.2 °F 71.6 °F 70% 29.74 in 2.5 mi Calm Calm - N/A   Haze
5:30 AM 78 °F - 72 °F 78% 29.76 in 1 mi Calm Calm - -   Haze
5:40 AM 80.6 °F 84.6 °F 71.6 °F 74% 29.74 in 2.5 mi Calm Calm - N/A   Haze
6:40 AM 78.8 °F - 75.2 °F 89% 29.77 in 1.9 mi Calm Calm - N/A   Haze
7:10 AM 78.8 °F - 73.4 °F 83% 29.77 in 1.9 mi Calm Calm - N/A   Haze
7:40 AM 80.6 °F 85.4 °F 73.4 °F 79% 29.80 in 1.9 mi Calm Calm - N/A   Haze
8:10 AM 82.4 °F 88.2 °F 73.4 °F 74% 29.80 in 1.9 mi Calm Calm - N/A   Haze
8:30 AM 82 °F - 73 °F 67% 29.81 in 2 mi Calm Calm - -   Haze
8:40 AM 84.2 °F 92.3 °F 75.2 °F 74% 29.80 in 2.5 mi West 4.6 mph - N/A   Haze
9:40 AM 87.8 °F 99.7 °F 77.0 °F 70% 29.83 in 3.1 mi NW 4.6 mph - N/A   Haze
10:10 AM 87.8 °F 99.7 °F 77.0 °F 70% 29.80 in 3.7 mi NW 4.6 mph - N/A   Partly Cloudy
10:40 AM 89.6 °F 102.2 °F 77.0 °F 66% 29.80 in 3.7 mi West 4.6 mph - N/A   Partly Cloudy
11:10 AM 91.4 °F 107.2 °F 78.8 °F 66% 29.80 in 3.7 mi West 4.6 mph - N/A   Partly Cloudy
11:30 AM 90 °F - 75 °F 53% 29.81 in 2 mi Calm Calm - -   Haze
11:40 AM 93.2 °F 110.2 °F 78.8 °F 63% 29.80 in 3.7 mi WSW 5.8 mph - N/A   Unknown
12:10 PM 95.0 °F 109.7 °F 77.0 °F 56% 29.77 in 3.7 mi SW 5.8 mph - N/A   Unknown
12:40 PM 95.0 °F 112.2 °F 78.8 °F 59% 29.77 in 3.7 mi WNW 5.8 mph - N/A   Unknown
1:10 PM 95.0 °F 112.2 °F 78.8 °F 59% 29.74 in 3.7 mi WNW 5.8 mph - N/A   Unknown
2:10 PM 96.8 °F 114.8 °F 78.8 °F 56% 29.71 in 3.7 mi NW 5.8 mph - N/A   Partly Cloudy
2:30 PM 94 °F - 75 °F 45% 29.74 in 2 mi West 2.3 mph - -   Mostly Cloudy
2:40 PM 96.8 °F 114.8 °F 78.8 °F 56% 29.71 in 3.7 mi WNW 6.9 mph - N/A   Scattered Clouds
3:10 PM 96.8 °F 112.2 °F 77.0 °F 53% 29.71 in 3.7 mi WNW 6.9 mph - N/A   Scattered Clouds
3:40 PM 98.6 °F 117.2 °F 78.8 °F 53% 29.71 in 3.7 mi NNW 6.9 mph - N/A   Partly Cloudy
4:10 PM 98.6 °F 114.4 °F 77.0 °F 50% 29.71 in 3.7 mi North 5.8 mph - N/A   Partly Cloudy
4:40 PM 98.6 °F 114.4 °F 77.0 °F 50% 29.71 in 3.7 mi NW 6.9 mph - N/A   Partly Cloudy
5:10 PM 96.8 °F 112.2 °F 77.0 °F 53% 29.71 in 3.7 mi NNE 5.8 mph - N/A   Partly Cloudy
5:40 PM 95.0 °F 109.7 °F 77.0 °F 56% 29.71 in 3.7 mi NE 4.6 mph - N/A   Partly Cloudy
6:10 PM 95.0 °F 109.7 °F 77.0 °F 56% 29.71 in 3.7 mi ESE 4.6 mph - N/A   Unknown
6:40 PM 93.2 °F 107.2 °F 77.0 °F 59% 29.74 in 3.7 mi ESE 3.5 mph - N/A   Unknown
7:40 PM 91.4 °F 102.5 °F 75.2 °F 59% 29.74 in 2.5 mi SSE 3.5 mph - N/A   Smoke
8:10 PM 91.4 °F 102.5 °F 75.2 °F 59% 29.77 in 2.5 mi SSE 3.5 mph - N/A   Smoke
8:30 PM 84 °F - 75 °F 69% 29.79 in 2 mi Calm Calm - -   Haze
8:40 PM 91.4 °F 102.5 °F 75.2 °F 59% 29.77 in 2.5 mi SSE 3.5 mph - N/A   Smoke
9:10 PM 91.4 °F 102.5 °F 75.2 °F 59% 29.80 in 2.5 mi Calm Calm - N/A   Smoke
9:40 PM 87.8 °F 102.5 °F 78.8 °F 75% 29.80 in 2.5 mi Calm Calm - N/A   Haze
10:10 PM 86.0 °F 99.3 °F 78.8 °F 79% 29.80 in 2.5 mi Calm Calm - N/A   Haze
10:40 PM 86.0 °F 99.3 °F 78.8 °F 79% 29.80 in 2.5 mi Calm Calm - N/A   Haze
11:10 PM 86.0 °F 96.9 °F 77.0 °F 74% 29.80 in 2.5 mi Calm Calm - N/A   Haze
11:30 PM 82 °F - 75 °F 73% 29.81 in 1 mi Calm Calm - -   Haze
11:40 PM 86.0 °F 96.9 °F 77.0 °F 74% 29.80 in 2.5 mi Calm Calm - N/A   Haze